Simultaneous Nadir Overpasses (SNOs) Predictions

Prediction of SNOs between METOP-C and LANDSAT-8 Satellite Orbit:

Table of predicted SNOs for the next 14.0 days since TLE Epoch: 10/19/2024
Index Date (METOP-C) Time (METOP-C) Lat,Lon (METOP-C) SZA (METOP-C ) Date (LANDSAT-8) Time (LANDSAT-8) Lat,Lon (LANDSAT-8) SZA (LANDSAT-8 ) Distance(km) Time Diff (sec)
1 10/21/2024 11:19:41 -81.10,-130.41 85.60 10/21/2024 11:20:10 -81.10,-130.49 85.60 1.45 29
2 10/21/2024 12:10:20 81.12, 37.52 94.50 10/21/2024 12:09:35 81.12, 37.56 94.48 0.66 45
3 10/24/2024 06:54:03 -81.10, -63.92 84.60 10/24/2024 06:54:21 -81.10, -63.99 84.60 1.17 18
4 10/24/2024 07:44:42 81.12, 103.95 95.49 10/24/2024 07:43:46 81.12, 104.03 95.48 1.28 56
5 10/27/2024 02:28:25 -81.11, 2.65 83.61 10/27/2024 02:28:31 -81.10, 2.51 83.63 2.57 6
6 10/27/2024 03:19:04 81.13, 170.48 96.47 10/27/2024 03:17:56 81.12, 170.49 96.44 0.40 68
7 10/29/2024 21:12:06 81.10, -98.53 97.28 10/29/2024 21:13:12 81.10, -98.65 97.30 2.04 66
8 10/29/2024 22:02:47 -81.11, 68.94 82.69 10/29/2024 22:02:39 -81.10, 69.00 82.69 1.06 8
9 11/01/2024 16:46:26 81.10, -32.20 98.17 11/01/2024 16:47:17 81.10, -32.19 98.20 0.56 51



Historial Predications of SNOs between METOP-C and LANDSAT-8
